DMSP 5D-2 F10 (USA 68)

Satellite information

Favourite Embed

Satellite Type and Status

PAYLOADIN ORBIT

Key statistics

Satellite DMSP 5D-2 F10 (USA 68) at a glance.

Uptime

12575

Days in orbit

Revolutions

≈ 14.4

Per day

Orbit

SSO

Sun Synchronous Orbit

Inclination

98.7

Latest

Satellite identification and parameters

Extended collection of information and parameters for DMSP 5D-2 F10 (USA 68).

Object identification

Identified? True

Debris? False

Object name: DMSP 5D-2 F10 (USA 68)

International designator: 1990-105A

Object number (NORAD): 20978

Object ID (CCSDS): 20978

Country: UNITED STATES OF AMERICA (US)

Current information (Y/N): Y

RCS size: LARGE

Orbital parameters

Period: 100.014 minutes

Inclination: 98.6639 deg

SMA: 7137.297 km

Apoapsis: 810.836 km

Periapsis: 707.487 km

RAAN: 177.0694 deg

Eccentricy: 0.0072401

Argument of periapsis: 60.8972 deg

Mean anomaly: 299.944 deg

Mean motion: 14.39799902 rev/day

Mean motion (dot): 0.00000595 rev/day2

B* drag term: 0.0001983 1/REarth

Two-line elements (TLE)

Creation date: May 6, 2025, 3:54 a.m.

Reference frame: TEME

Reference center: EARTH

Epoch: May 5, 2025, 4:05 p.m. UTC

TLE line 0: 0 DMSP 5D-2 F10 (USA 68)

TLE line 1: 1 20978U 90105A 25125.67060059 .00000595 00000-0 19830-3 0 9992

TLE line 2: 2 20978 98.6639 177.0694 0072401 60.8972 299.9440 14.39799902803864

Live tracking on map

Real-time ground track for satellite DMSP 5D-2 F10 (USA 68).

In-orbit conjunctions

A list of the most updated potential collisions computed for object DMSP 5D-2 F10 (USA 68).

Target Orbit TCA Probability of collision Miss distance Type
FENGYUN 1C DEB SSO 2025-03-08 18:22:40 0.0001084263 391.0 (m) DEBRIS
COSMOS 1867 COOLANT LEO 2025-03-04 05:10:38 0.01354115 24.0 (m) DEBRIS
DMSP 5D-2 F11 DEB SSO 2025-01-01 07:39:08 0.0004661265 40.0 (m) DEBRIS
FENGYUN 1C DEB SSO 2024-11-25 15:05:53 0.0001381898 340.0 (m) DEBRIS
COSMOS 249 DEB * LEO 2024-10-20 18:23:03 0.0008362799 518.0 (m) DEBRIS

Associated space launch

Military meteorological satellite

DMSP 5D-2 F10 (USA 68) was lifted into orbit during the mission ‘Atlas E | DMSP-5D2 F10’, on board a Atlas E space rocket.

The launch took place on Dec. 1, 1990, 3:57 p.m. from Space Launch Complex 3W.

For more information about the launch, click the button.

Launch to space Atlas E | DMSP-5D2 F10
Atlas E | DMSP-5D2 F10

Agency: N/A

Status: Launch Successful

Launch date: Dec. 1, 1990, 3:57 p.m. UTC

Rocket: Atlas E

Launch pad: Space Launch Complex 3W

Location: Vandenberg SFB, CA, USA

...

Latest news about this satellite

There are no fresh news available about this satellite. Check back as we update our databases every day.


Newsletter sign-up

Weekly statistics, charts and insights to help you stay on top of the space industry.